Flag for U.S.A. Weather past 2 weeks in Wichita, Kansas, U.S.A.

Now
54 °F

Overcast.


Feels Like: 50 °F
Forecast: 49 / 64 °F
Wind: 16 mph from East

Location: Wichita Mid-Continent Airport

Current Time: Apr 26, 2015 at 1:56:07 AM

Latest Report: Apr 26, 2015 at 12:53 AM


Visibility: 10 mi

Pressure: 29.76 "Hg

Humidity: 86%

Dew point: 50 °F

Location of WichitaLocation

Historic Weather in Wichita — Graph

°F

Wichita temperature yesterday

Maximum temperature yesterday: 75 °F (at 1:53 PM)
Minimum temperature yesterday: 54 °F (at 5:53 AM)
Average temperature yesterday: 65 °F

Past Weeks' High & Low Weather Summary

 TemperatureHumidityPressure
High79 °F (Apr 12, 4:53 PM)100% (Apr 12, 11:53 PM)30.23 "Hg (Apr 12, 11:53 PM)
Low41 °F (Apr 20, 6:53 AM)20% (Apr 13, 1:53 PM)29.37 "Hg (Apr 25, 2:53 AM)
Average60 °F62%29.90 "Hg
* Reported Apr 10 11:53 PM — Apr 25 11:53 PM, Wichita, Weather by CustomWeather, © 2015

Note: Actual official high and low records may vary slightly from our data, if they occured in-between our weather recording intervals... More about our weather records

Advertising

Wichita weather history for previous 24 hours

 ConditionsComfort  
Time TempWeatherWind HumidityBarometerVisibility
11:53 PM
Sat, Apr 25
57 °FOvercast.17 mph81%29.74 "Hg10 mi
10:53 PM57 °FPassing clouds.20 mph83%29.72 "Hg10 mi
9:53 PM60 °FClear.17 mph78%29.71 "Hg10 mi
8:53 PM63 °FSunny.16 mph73%29.68 "Hg10 mi
7:53 PM69 °FSunny.13 mph55%29.65 "Hg10 mi
6:53 PM71 °FScattered clouds.14 mph53%29.63 "Hg10 mi
5:53 PM74 °FPartly sunny.16 mph48%29.62 "Hg10 mi
4:53 PM75 °FScattered clouds.14 mph48%29.60 "Hg10 mi
3:53 PM74 °FScattered clouds.15 mph50%29.59 "Hg10 mi
2:53 PM74 °FScattered clouds.14 mph50%29.59 "Hg10 mi
1:53 PM75 °FScattered clouds.20 mph43%29.58 "Hg10 mi
12:53 PM73 °FScattered clouds.17 mph46%29.58 "Hg10 mi
11:53 AM72 °FPassing clouds.22 mph48%29.58 "Hg10 mi
10:53 AM69 °FPassing clouds.18 mph55%29.57 "Hg10 mi
9:53 AM66 °FPassing clouds.16 mph61%29.54 "Hg10 mi
8:53 AM61 °FPassing clouds.13 mph72%29.54 "Hg10 mi
7:53 AM59 °FScattered clouds.13 mph78%29.51 "Hg10 mi
6:53 AM56 °FPassing clouds.13 mph87%29.48 "Hg10 mi
5:53 AM54 °FPassing clouds.7 mph90%29.45 "Hg10 mi
4:53 AM57 °FPassing clouds.9 mph87%29.44 "Hg10 mi
3:53 AM57 °FLight rain. Low clouds.22 mph93%29.41 "Hg10 mi
2:53 AM60 °FPassing clouds.10 mph90%29.37 "Hg10 mi
1:53 AM63 °FLight rain. Overcast.13 mph90%29.39 "Hg10 mi
Weather by CustomWeather, © 2015

See weather overviewHow to use our weather pages